Location: *
(34.8397°N, 67.2308°E)
Time: 03:02:08
(UTC+00:00)

Daily predictions for brighter satellites

Satellite Brightness Start Highest point End
(mag) Time Altitude Azimuth Time Altitude Azimuth Time Altitude Azimuth
NOSS 3-4 (A) 4.3 00:05:52 13° S 00:10:52 46° ESE 00:16:40 10° NE
NOSS 3-4 (C) 4.3 00:05:46 12° S 00:10:58 45° ESE 00:16:45 10° NE
SL-16 R/B 3.8 00:22:10 10° SSE 00:27:10 33° ESE 00:32:11 10° NE
CENTAUR R/B 4.5 00:23:23 10° NNW 00:30:45 35° NE 00:38:32 10° ESE
SEDSat Delta rocket 4.0 00:31:31 52° SW 00:32:32 59° S 00:38:12 10° ESE
STARLINK 1020 4.4 00:33:28 42° SE 00:33:28 42° SE 00:36:56 10° ENE
STARLINK 1034 4.2 00:36:17 45° SE 00:36:19 45° SE 00:39:48 10° ENE
Cosmos 44 Rocket 3.0 00:37:18 77° NW 00:37:40 87° WSW 00:42:27 10° SSE
Cosmos 2184 Rocket 4.3 00:38:56 44° WSW 00:38:56 44° WSW 00:43:56 10° SSW
Cosmos 1758 Rocket 4.2 00:35:23 14° N 00:39:00 54° E 00:43:19 10° SSE
Cosmos 1980 Rocket 2.5 00:41:45 46° NW 00:41:45 46° NW 00:46:33 10° N
FENGYUN 3A 3.9 00:36:32 10° NNE 00:41:56 71° ESE 00:47:20 10° S
STARLINK 1033 3.9 00:42:08 51° SSE 00:42:23 53° SE 00:45:57 10° NE
Cosmos 1726 2.5 00:40:12 10° S 00:43:48 61° E 00:47:26 10° NNE
ATLAS 2AS CENTAUR R/B 2.9 00:37:27 10° SW 00:45:19 77° WNW 00:53:23 10° NNE
CZ-4B R/B 4.4 00:40:26 10° NNE 00:45:38 42° E 00:50:43 10° S
Cosmos 2154 Rocket 3.9 00:40:23 10° NNW 00:46:32 67° W 00:52:39 10° S
Cosmos 2344 4.2 00:49:52 32° NW 00:50:33 32° NW 00:57:31 10° NNE
Okean O Rocket 2.6 00:49:49 10° NNE 00:54:08 49° E 00:58:24 10° S
Cosmos 1680 Rocket 3.6 00:49:46 10° SSW 00:55:03 80° ESE 01:00:24 10° NNE
PAYLOAD B 4.4 00:49:58 10° NNE 00:55:36 74° ESE 01:01:11 10° S
USA 238 DEB 3.8 00:54:58 18° NNW 01:00:41 87° WSW 01:08:09 10° SSE
USA 238 3.8 00:55:02 18° NNW 01:00:47 88° WSW 01:08:16 10° SSE
Cosmos 2058 Rocket 3.8 00:57:44 10° S 01:02:01 54° E 01:06:18 10° NNE
Cosmos 1295 Rocket 4.4 00:55:56 10° NNW 01:02:02 67° W 01:08:04 10° S
NOAA 6 4.4 00:58:06 10° NNE 01:03:17 69° ESE 01:08:26 10° S
Cosmos 1825 Rocket 3.4 00:59:16 10° N 01:03:37 88° W 01:07:58 10° S
STARLINK 1044 3.1 01:03:11 45° SW 01:04:13 84° NW 01:07:54 10° NE
STARLINK 1040 3.8 01:06:36 31° NNE 01:06:36 31° NNE 01:08:25 10° NE
SJ-12 4.0 01:03:03 10° N 01:06:58 47° WNW 01:10:53 10° SSW
Lacrosse 5 2.0 01:04:46 10° SSW 01:09:49 76° SE 01:14:54 10° NE
Cosmos 1908 3.4 01:06:22 10° S 01:10:15 74° E 01:14:10 10° N
ALOS 2.4 01:07:20 10° N 01:11:52 51° WNW 01:16:21 10° SSW
Cosmos 2112 Rocket 4.0 01:06:58 10° SSW 01:12:19 83° WNW 01:17:42 10° NNE
SL-4 R/B 2.3 01:10:52 28° NNW 01:12:21 48° NE 01:15:41 10° ESE
Cosmos 2227 4.4 01:08:30 10° NNW 01:14:09 73° ENE 01:19:45 10° SSE
Cosmos 1606 Rocket 3.8 01:12:41 10° SSW 01:16:57 45° W 01:21:12 10° N
Abrixas rocket 4.2 01:15:55 14° N 01:17:05 17° NNE 01:19:12 10° ENE
COSMO-SKYMED 1 2.8 01:13:28 10° S 01:17:38 47° W 01:21:13 14° NNW
Cosmos 1726 Rocket 3.6 01:13:57 10° SSW 01:18:18 56° W 01:22:40 10° N
Meteor 1-21 Rocket 4.5 01:15:16 10° NNW 01:20:56 50° W 01:26:37 10° SSW
Milstar 3 Cent rocket 4.3 01:07:48 10° WSW 01:22:46 51° S 01:29:58 10° E
STARLINK 1031 3.4 01:23:58 25° WSW 01:25:43 49° NW 01:29:14 10° NE
NOSS 7 (D) 4.4 01:24:43 27° NW 01:26:17 60° WSW 01:29:56 10° SSE
COSMOS 2455 3.9 01:24:56 21° W 01:26:51 24° NW 01:31:40 10° N
STARLINK 1024 3.5 01:26:50 23° WSW 01:28:45 46° NW 01:32:15 10° NE
SJ-7 4.4 01:25:05 10° N 01:29:16 77° WNW 01:33:27 10° SSW
BREEZE M DEB (TANK) 4.2 01:28:43 16° NNW 01:29:22 17° N 01:32:08 10° NNE
Cosmos 2322 Rocket 2.1 01:25:21 10° SSW 01:30:59 78° WNW 01:36:42 10° NNE
Helios 1A Rocket 2.8 01:27:00 10° N 01:31:08 79° WNW 01:35:16 10° SSW
CZ-4B DEB 4.5 01:26:01 10° N 01:31:15 44° WNW 01:36:26 10° SW
Cosmos 1703 3.1 01:27:29 10° N 01:31:27 81° W 01:35:21 10° S
Gbstr 26 Del rocket 4.4 01:25:21 12° WSW 01:31:46 57° NW 01:39:36 10° NE
STARLINK 1032 3.7 01:32:16 20° W 01:34:21 40° NW 01:37:48 10° NNE
STARLINK 1011 3.8 01:35:08 18° W 01:37:26 38° NW 01:40:51 10° NNE
Cosmos 2228 3.9 01:34:27 10° SW 01:38:15 28° WNW 01:42:03 10° NNW
Cosmos 2181 Rocket 4.3 01:34:10 10° SSW 01:40:01 44° W 01:46:00 10° N
STARLINK 1036 3.9 01:37:48 17° W 01:40:11 36° NW 01:43:33 10° NNE
STARLINK 1035 4.0 01:41:03 17° W 01:43:02 30° NW 01:46:05 10° NNE
Cosmos 2263 Rocket 2.2 01:39:21 10° NNW 01:45:01 81° WSW 01:50:41 10° SSE
STARLINK 1027 4.2 01:44:02 16° W 01:46:01 27° NW 01:48:58 10° NNE
STARLINK 1047 4.1 01:43:34 14° W 01:46:13 32° NW 01:49:31 10° NNE
STARLINK 1037 4.1 01:44:23 14° W 01:47:04 31° NW 01:50:21 10° NNE
SL-8 Rocket 4.1 01:41:27 10° NNW 01:47:25 52° W 01:53:20 10° SSW
Cosmos 2056 Rocket 4.1 01:44:01 10° N 01:49:25 62° ENE 01:54:45 10° SSE
STARLINK 1059 4.2 01:47:15 12° W 01:50:03 29° NW 01:53:16 10° NNE
STARLINK 1057 4.3 01:50:05 11° W 01:53:01 28° NW 01:56:12 10° NNE
NOSS 3-2 (C) 4.2 01:45:29 10° NW 01:53:19 69° WSW 02:01:49 10° SSE
STARLINK 1054 4.3 01:51:32 10° SSW 01:55:35 59° SE 01:59:39 10° NE
STARLINK 1052 4.4 01:52:58 10° W 01:56:02 26° NW 01:59:09 10° NNE
CZ-4 R/B 4.4 01:53:46 10° NE 01:57:03 22° E 02:00:17 10° SSE
Alouette 2 Rocket 4.0 01:53:16 10° S 01:58:45 78° E 02:02:41 10° NNE
STARLINK 1068 4.4 01:55:59 10° W 01:59:02 25° NW 02:02:06 10° NNE
ATLAS 3B R/B 3.0 01:52:19 10° NNW 01:59:07 73° ENE 02:06:06 10° SE
STARLINK 1062 4.1 01:56:27 10° SW 02:00:32 66° SE 02:04:38 10° NE
USA 215 3.3 01:55:00 10° SE 02:01:32 78° SW 02:08:05 10° NW
NOSS 3-4 (A) 4.3 01:56:54 10° WSW 02:01:54 27° NW 02:07:08 10° N
NOSS 3-4 (C) 4.3 01:56:58 10° WSW 02:02:00 27° NW 02:07:15 10° N
STARLINK 1053 3.9 02:01:24 10° SW 02:05:31 74° SE 02:09:38 10° NE
SMAP 3.1 02:05:37 10° N 02:10:12 58° WNW 02:14:44 10° SSW
ADEOS Rocket 2.8 02:05:01 10° S 02:10:27 63° WSW 02:15:59 10° NNW
STARLINK 1061 3.7 02:06:20 10° SW 02:10:27 83° SE 02:14:36 10° NE
SL-16 R/B 3.0 02:06:20 10° WSW 02:11:13 29° WNW 02:16:07 10° N
Cosmos 2322 4.3 02:07:22 10° S 02:12:57 64° ESE 02:18:34 10° NNE
